Talkeetna, AK

5:22 AM AKDT on October 17, 2017 (GMT -0800)
Talkeetna

Weather History for PATK - December, 2011

Change the Weather History Date:

Monday, December 12, 2011

  Actual Average Record
Temperature  
Mean Temperature 28 °F -  
Max Temperature 33 °F 22 °F 38 °F (1962)
Min Temperature 21 °F 5 °F -38 °F (1956)
Degree Days  
Heating Degree Days 37    
Moisture  
Dew Point 28 °F    
Average Humidity 91    
Maximum Humidity 100    
Minimum Humidity 82    
Precipitation  
Precipitation 0.05 in - - ()
Sea Level Pressure  
Sea Level Pressure 29.28 in    
Wind  
Wind Speed 4 mph (South)    
Max Wind Speed 16 mph    
Max Gust Speed 22 mph    
Visibility 8 miles    
Events Snow    
Averages and records for this station are not official NWS values.
T = Trace of Precipitation, MM = Missing Value Source: NWS Daily Summary

Daily Weather History Graph

Daily Weather History Graph

Search for Another Location

Airport or City:

Trip Planner

Search our weather history database for the weather conditions in past years. The results will help you decide how hot, cold, wet, or windy it might be!

Date:

Astronomy

Dec. 12, 2011 Rise Set
Actual Time 10:18 AM AKST 3:29 PM AKST
Civil Twilight 9:12 AM AKST 4:35 PM AKST
Nautical Twilight 8:10 AM AKST 5:37 PM AKST
Astronomical Twilight 7:14 AM AKST 6:33 PM AKST
Moon 6:16 PM AKST (12/12) 11:35 AM AKST (12/12)
Length of Visible Light 7h 23m
Length of Day
5h 10m
Waning Gibbous, 95% of the Moon is Illuminated
Dec 12
Waning Gibbous
Dec 17
Last Quarter
Dec 24
New
Dec 31
First Quarter
Jan 8
Full

Hourly Weather History & Observations

Time (AKST) Temp. Windchill Dew Point Humidity Pressure Visibility Wind Dir Wind Speed Gust Speed Precip Events Conditions
12:53 AM 30.0 °F - 28.0 °F 92% 28.90 in 10.0 mi Calm Calm - N/A   Overcast
1:53 AM 30.0 °F - 28.9 °F 96% 28.94 in 10.0 mi Calm Calm - N/A   Overcast
2:14 AM 30.2 °F - 30.2 °F 100% 28.93 in 2.5 mi Calm Calm - 0.00 in Snow Light Snow
2:40 AM 30.2 °F 26.7 °F 30.2 °F 100% 28.95 in 3.0 mi ENE 3.5 mph - 0.01 in Snow Light Snow
3:53 AM 30.0 °F - 30.0 °F 100% 29.01 in 10.0 mi Calm Calm - 0.00 in   Overcast
4:12 AM 30.2 °F - 30.2 °F 100% 29.01 in 7.0 mi Calm Calm - 0.00 in Snow Light Snow
4:29 AM 30.2 °F - 30.2 °F 100% 29.02 in 2.5 mi Calm Calm - 0.00 in   Overcast
4:42 AM 32.0 °F - 30.2 °F 93% 29.03 in 2.5 mi Calm Calm - 0.00 in   Overcast
4:53 AM 32.0 °F - 32.0 °F 100% 29.05 in 1.2 mi Calm Calm - 0.01 in Snow Light Snow
5:02 AM 32.0 °F - 32.0 °F 100% 29.04 in 1.8 mi Calm Calm - 0.01 in Snow Light Snow
5:11 AM 32.0 °F 28.7 °F 32.0 °F 100% 29.05 in 1.2 mi South 3.5 mph - 0.01 in Snow Light Snow
5:30 AM 32.0 °F 25.6 °F 32.0 °F 100% 29.06 in 2.0 mi SSE 6.9 mph - 0.03 in Snow Light Snow
5:53 AM 33.1 °F 26.1 °F 32.0 °F 96% 29.09 in 1.5 mi South 8.1 mph - 0.04 in Snow Light Snow
6:07 AM 33.8 °F 27.0 °F 32.0 °F 93% 29.08 in 3.0 mi SSE 8.1 mph - 0.00 in Snow Light Snow
6:21 AM 33.8 °F 27.0 °F 32.0 °F 93% 29.08 in 9.0 mi SSE 8.1 mph - 0.00 in   Overcast
6:53 AM 33.1 °F 23.0 °F 30.9 °F 92% 29.13 in 10.0 mi South 15.0 mph 19.6 mph 0.00 in   Overcast
7:53 AM 33.1 °F 23.9 °F 28.0 °F 82% 29.18 in 10.0 mi South 12.7 mph - N/A   Overcast
8:53 AM 32.0 °F 21.2 °F 27.0 °F 82% 29.22 in 10.0 mi South 16.1 mph - N/A   Overcast
9:53 AM 30.9 °F 21.2 °F 26.1 °F 82% 29.27 in 10.0 mi South 12.7 mph - N/A   Scattered Clouds
10:53 AM 30.0 °F 19.5 °F 25.0 °F 82% 29.31 in 10.0 mi South 13.8 mph - N/A   Overcast
11:53 AM 30.0 °F 19.5 °F 26.1 °F 85% 29.37 in 10.0 mi South 13.8 mph 21.9 mph N/A   Clear
12:53 PM 30.0 °F 20.0 °F 26.1 °F 85% 29.41 in 10.0 mi South 12.7 mph - N/A   Overcast
1:10 PM 30.2 °F 20.8 °F 26.6 °F 86% 29.40 in 10.0 mi South 11.5 mph - N/A   Overcast
1:29 PM 30.2 °F 20.2 °F 26.6 °F 86% 29.41 in 10.0 mi South 12.7 mph 19.6 mph N/A   Overcast
1:53 PM 30.0 °F 21.7 °F 25.0 °F 82% 29.44 in 10.0 mi South 9.2 mph - N/A   Overcast
2:53 PM 30.0 °F 21.7 °F 25.0 °F 82% 29.47 in 10.0 mi SSW 9.2 mph - N/A   Overcast
3:22 PM 28.4 °F 22.2 °F 24.8 °F 86% 29.47 in 10.0 mi South 5.8 mph - N/A   Scattered Clouds
3:32 PM 28.4 °F 22.2 °F 24.8 °F 86% 29.48 in 10.0 mi SSW 5.8 mph - N/A   Mostly Cloudy
3:53 PM 28.9 °F 22.8 °F 26.1 °F 89% 29.51 in 10.0 mi South 5.8 mph - N/A   Overcast
4:53 PM 28.9 °F 22.8 °F 26.1 °F 89% 29.54 in 10.0 mi SSE 5.8 mph - N/A   Overcast
5:53 PM 30.0 °F 26.5 °F 26.1 °F 85% 29.57 in 10.0 mi ESE 3.5 mph - 0.00 in   Overcast
6:53 PM 28.9 °F - 25.0 °F 85% 29.61 in 10.0 mi Calm Calm - 0.00 in   Overcast
7:53 PM 27.0 °F - 25.0 °F 92% 29.64 in 10.0 mi Calm Calm - N/A   Overcast
8:53 PM 24.1 °F - 23.0 °F 96% 29.66 in 9.0 mi Calm Calm - N/A   Overcast
9:53 PM 23.0 °F - 21.9 °F 96% 29.69 in 10.0 mi Calm Calm - N/A   Overcast
10:53 PM 24.1 °F - 23.0 °F 96% 29.70 in 10.0 mi Calm Calm - N/A   Overcast
11:53 PM 21.9 °F - 19.9 °F 92% 29.72 in 10.0 mi Calm Calm - N/A   Overcast